This demonstration page uses our WeatherBlox Daily Observations layout. Learn more.

Left ArrowRight Arrow

Hourly Observations for March 8, 2019

Temp ( °F °C ) Dew Point ( °F °C ) Humidity (%) Winds ( mph kmh ) Pressure ( in mb ) Visibility ( mi km ) Precip ( " mm )
12:15 am 00:15 Cloudy 47 8.3 46 7.8 97 97 Calm 29.91 1013 10 16 0.00 0.00
12:44 am 00:44 Cloudy 47 8.3 46 7.8 97 97 Calm 29.91 1013 8 13 0.00 0.00
12:53 am 00:53 Cloudy with Light Rain 47 8.3 45 7.2 93 93 Calm 29.90 1012 9 14 0.00 0.03
1:46 am 01:46 Cloudy with Light Rain 47 8.3 45 7.2 93 93 Calm 29.91 1013 8 13 0.02 0.51
1:53 am 01:53 Cloudy 47 8.3 45 7.2 93 93 Calm 29.90 1012 10 16 0.02 0.51
2:03 am 02:03 Cloudy 47 8.3 45 7.2 93 93 Calm 29.91 1013 10 16 0.00 0.00
2:22 am 02:22 Cloudy with Mist and Fog 47 8.3 45 7.2 93 93 Calm 29.90 1013 6 10 0.00 0.00
2:33 am 02:33 Cloudy 47 8.3 45 7.2 93 93 Calm 29.90 1013 8 13 0.00 0.00
2:40 am 02:40 Cloudy 47 8.3 45 7.2 93 93 Calm 29.90 1013 8 13 0.00 0.00
2:48 am 02:48 Cloudy 46 8 45 7 93 93 Calm 29.90 1013 8 13 0.00 0.00
2:53 am 02:53 Cloudy 47 8.3 45 7.2 93 93 Calm 29.89 1012 8 13 0.00 0.00
3:16 am 03:16 Cloudy 46 7.8 45 7.2 96 96 Calm 29.90 1013 8 13 0.00 0.00
3:26 am 03:26 Cloudy 46 7.8 40 4.4 79 79 WSW 5 7 29.90 1013 10 16 0.00 0.00
3:33 am 03:33 Cloudy 46 7.8 38 3.3 73 73 W 5 7 29.90 1013 10 16 0.00 0.00
3:53 am 03:53 Cloudy 45 7.2 39 3.9 80 80 W 3 6 29.89 1012 10 16 0.00 0.00
4:53 am 04:53 Cloudy 45 7.2 42 5.6 90 90 Calm 29.89 1012 10 16 0.00 0.03
5:04 am 05:04 Cloudy 44 6.7 41 5 89 89 WSW 5 7 29.91 1013 10 16 0.00 0.00
5:12 am 05:12 Cloudy 44 6.7 38 3.3 79 79 W 6 9 29.92 1013 10 16 0.00 0.00
5:20 am 05:20 Cloudy 44 6.7 38 3.3 79 79 WSW 5 7 29.92 1013 10 16 0.00 0.00
5:50 am 05:50 Cloudy 43 6 37 3 81 81 SSW 9 15 29.94 1014 10 16 0.00 0.00
5:53 am 05:53 Cloudy 43 6.1 37 2.8 80 80 SW 8 13 29.93 1013 10 16 0.00 0.00
6:53 am 06:53 Mostly Cloudy 43 6.1 32 0 65 65 WSW 9 15 29.95 1014 10 16 0.00 0.00
7:53 am 07:53 Partly Cloudy 43 6.1 31 -0.6 63 63 WSW 8 13 29.97 1015 10 16 0.00 0.00
8:53 am 08:53 Partly Cloudy 45 7.2 31 -0.6 58 58 S 7 11 29.99 1016 10 16 0.00 0.00
9:53 am 09:53 Partly Cloudy 46 7.8 40 4.4 79 79 SE 9 15 29.99 1016 10 16 0.00 0.00
10:53 am 10:53 Partly Cloudy 48 8.9 39 3.9 71 71 SE 7 11 29.99 1016 10 16 0.00 0.00
11:53 am 11:53 Partly Cloudy 49 9.4 38 3.3 66 66 E 7 11 29.99 1016 10 16 0.00 0.00
12:53 pm 12:53 Partly Cloudy 50 10 38 3.3 63 63 VRB 7 11 29.97 1015 10 16 0.00 0.00
1:53 pm 13:53 Partly Cloudy 52 11.1 37 2.8 57 57 SSW 7 11 29.95 1014 10 16 0.00 0.00
2:53 pm 14:53 Partly Cloudy 54 12.2 36 2.2 51 51 ESE 8 13 29.94 1014 10 16 0.00 0.00
3:53 pm 15:53 Partly Cloudy 53 11.7 35 1.7 51 51 SE 13 20 29.94 1014 10 16 0.00 0.00
4:53 pm 16:53 Partly Cloudy 51 10.6 37 2.8 59 59 S 16 26 29.94 1014 10 16 0.00 0.00
5:53 pm 17:53 Partly Cloudy 51 10.6 35 1.7 54 54 S 14 22 29.96 1015 10 16 0.00 0.00
6:53 pm 18:53 Partly Cloudy 48 8.9 33 0.6 56 56 SSW 16 26 29.96 1015 10 16 0.00 0.00
7:53 pm 19:53 Cloudy 47 8.3 37 2.8 69 69 SSE 14 22 29.95 1014 10 16 0.02 0.51
8:53 pm 20:53 Cloudy 48 8.9 38 3.3 68 68 S 7 11 29.96 1015 10 16 0.00 0.03
9:53 pm 21:53 Cloudy 46 7.8 38 3.3 73 73 Calm 29.96 1015 10 16 0.00 0.00
10:53 pm 22:53 Mostly Cloudy 45 7.2 39 3.9 80 80 Calm 29.96 1015 10 16 0.00 0.00
11:53 pm 23:53 Cloudy 45 7.2 39 3.9 80 80 NNE 3 6 29.96 1014 10 16 0.00 0.00

Powered by AerisWeather